Weather Roundup
Issued by NWS Chicago, IL

Current Version | Previous Version | Text Only | Print | Product List | Glossary On
Versions: 1 2 3 4 5 6 7 8 9 10 11 12 13 14 15 16 17 18 19 20 21 22 23 24 25 26 27 28 29 30 31 32 33 34 35 36 37 38 39 40 41 42 43 44 45 46 47 48 49 50
000
NZUS59 KLOT 272312
HRRLOT

CHICAGO AREA WEATHER ROUNDUP
NATIONAL WEATHER SERVICE CHICAGO/ROMEOVILLE IL
600 PM CDT TUE SEP 27 2016

NOTE: "FAIR" INDICATES FEW OR NO CLOUDS BELOW 12,000 FEET WITH NO
SIGNIFICANT WEATHER AND/OR OBSTRUCTIONS TO VISIBILITY.

* THESE STATIONS ARE NOT UNDER NWS QUALITY CONTROL. THEY ALSO MAY NOT
  REPORT WEATHER SUCH AS PRECIPITATION OR FOG.

ILZ005-006-012>014-019>023-280000-
NORTHEAST ILLINOIS

CITY           SKY/WX    TMP DP  RH WIND       PRES   REMARKS
OHARE          CLOUDY    67  31  26 W16G25    29.75R
MIDWAY         MOCLDY    68  31  25 W8        29.76R
AURORA         MOCLDY    66  34  30 W9        29.77R
LANSING*       PTCLDY    66  37  34 W12G17    29.76S
JOLIET*        PTCLDY    69  33  26 CALM      29.77S
WAUKEGAN       MOCLDY    63  44  50 N7        29.74R
DUPAGE AIRPORT PTCLDY    65  31  28 W13G22    29.76R
WHEELING       PTCLDY    66  33  29 W9        29.76R
KANKAKEE*      CLEAR     71  31  22 W8        29.77S
MORRIS*        PTCLDY    69  32  25 NW3       29.76R
LEWIS AIRPORT* PTCLDY    67  39  36 W7        29.77R
NORTHERLY ISL    N/A     68  32  26 W8          N/A
$$

WIZ051-052-058>065-066-070>072-280000-
SOUTHEAST WISCONSIN

CITY           SKY/WX    TMP DP  RH WIND       PRES   REMARKS
MILWAUKEE      LGT RAIN  57  46  66 NW8       29.76R
KENOSHA*       CLOUDY    60  45  57 N9        29.75R
RACINE*        CLOUDY    58  45  62 NW6       29.77R
BURLINGTON     CLOUDY    56  43  62 N8        29.75R
WAUKESHA       LGT RAIN  52  46  82 NW5       29.77R
WEST BEND      RAIN      52  45  76 W7        29.75R
$$

INZ001>003-010>013-019-020-280000-
NORTHWEST INDIANA

CITY           SKY/WX    TMP DP  RH WIND       PRES   REMARKS
GARY*          MOCLDY    70  30  23 W15       29.75S
MICHIGAN CITY* NOT AVBL
RENSSELAER*    NOT AVBL
VALPARAISO     CLEAR     65  35  33 W10       29.77R
$$

LMZ740>746-280000-
SOUTHERN LAKE MICHIGAN

STATION/POSITION TIME  SKY/WX   TEMP WIND        PRES    VSBY
                                AIR  DIR/SP/G
                 (UTC)          (F)  (DEG/KT/KT) (MB)    (MI)
HARRISON CRIB    2240            68  280/ 16/ 19   N/A
BURNHAM HARBOR   2300            68  280/  8/ 16   N/A
CALUMET HARBOR   2242            68  260/  9/ 15 1007.1R
BURNS HARBOR     2240            68  280/ 16/ 21 1007.8R
MICHIGAN CITY    2240            67  250/ 17/ 19   N/A
$$

ABBREVIATIONS USED IN REMARKS
   TC - TEMPERATURE IN CELSIUS
  WCI - WIND CHILL INDEX
   HX - HEAT INDEX
  VSB - VISIBILITY
$$



USA.gov is the U.S. government's official web portal to all federal, state and local government web resources and services.